パンスターズ彗星

C/2024 F2 ( PanSTARRS )

English version
Home page
Updated on September 4, 2024

---------------------------------------------------------------------

・ プロフィール

発見日 2024年3月21日
発見光度 21.0等
発見者 Pan-STARRS 1 telescope (Haleakala)

・ 写真集

・ 軌道要素

Epoch 2024 Oct. 17.0 TT = JDT 2460600.5
T 2024 July 29.12738 TT                                 Rudenko
q   3.9682680            (2000.0)            P               Q
n   0.03140653     Peri.  112.90886     -0.29411209     +0.94295290
a   9.9492293      Node   138.94590     -0.94064921     -0.25665657
e   0.6011482      Incl.   13.74109     -0.16934327     -0.21205478
P  31.4
>From 175 observations 2024 Mar. 21-Aug. 10, mean residual 0".4.

・ 光度変化

        m1 = 10.5 + 5 logΔ + 10.0 log r

---------------------------------------------------------------------

軌道要素はM.P.E.C. 2024-Q20に掲載されたものです。
光度グラフはComet for Windowsで作成したものです。

---------------------------------------------------------------------

Copyright(C) Seiichi Yoshida (comet@aerith.net). All rights reserved.